| time (UTC) | temp C | wind direction | speed KPH | gust KPH | rain 1hr cm | rain 24hr cm | rain mn cm | humidity % | barometer mb |
| 20260831115550 | 33 | 225 | 1.6 | 3.2 | 0.00 | 0.00 | 0.00 | 77 | 1011.3 |
| 20260831114048 | 33 | 225 | 0.0 | 4.8 | 0.00 | 0.00 | 0.00 | 76 | 1011.1 |
| 20260831112545 | 33 | 225 | 3.2 | 4.8 | 0.00 | 0.00 | 0.00 | 77 | 1011.1 |
| 20260831111043 | 33 | 225 | 1.6 | 4.8 | 0.00 | 0.00 | 0.00 | 76 | 1010.9 |
| 20260831105540 | 33 | 225 | 1.6 | 4.8 | 0.00 | 0.00 | 0.00 | 76 | 1011.0 |
| 20260831104037 | 33 | 270 | 3.2 | 8.0 | 0.00 | 0.00 | 0.00 | 76 | 1010.7 |
| 20260831102535 | 33 | 270 | 1.6 | 9.7 | 0.00 | 0.00 | 0.00 | 76 | 1010.5 |
| 20260831101033 | 33 | 270 | 3.2 | 6.4 | 0.00 | 0.00 | 0.00 | 75 | 1010.4 |
| 20260831095530 | 33 | 270 | 0.0 | 9.7 | 0.00 | 0.00 | 0.00 | 75 | 1010.4 |
| 20260831094027 | 34 | 270 | 4.8 | 9.7 | 0.00 | 0.00 | 0.00 | 74 | 1010.3 |
| 20260831092525 | 34 | 315 | 1.6 | 9.7 | 0.00 | 0.00 | 0.00 | 74 | 1010.1 |
| 20260831091023 | 34 | 225 | 8.0 | 9.7 | 0.00 | 0.00 | 0.00 | 74 | 1010.0 |
| 20260831085520 | 34 | 180 | 6.4 | 11.3 | 0.00 | 0.00 | 0.00 | 74 | 1010.0 |
| 20260831084017 | 34 | 135 | 9.7 | 9.7 | 0.00 | 0.00 | 0.00 | 73 | 1009.6 |
| 20260831082515 | 34 | 135 | 1.6 | 11.3 | 0.00 | 0.00 | 0.00 | 74 | 1009.3 |
| 20260831081013 | 34 | 135 | 6.4 | 12.9 | 0.00 | 0.00 | 0.00 | 74 | 1009.3 |
| 20260831075510 | 34 | 135 | 8.0 | 11.3 | 0.00 | 0.00 | 0.00 | 74 | 1009.1 |
| 20260831074007 | 34 | 270 | 9.7 | 12.9 | 0.00 | 0.00 | 0.00 | 74 | 1009.0 |
| 20260831072505 | 34 | 270 | 3.2 | 9.7 | 0.00 | 0.00 | 0.00 | 74 | 1008.8 |
| 20260831071003 | 34 | 217 | 8.0 | 14.5 | 0.00 | 0.00 | 0.00 | 74 | 1008.6 |
| 20260831065500 | 34 | 180 | 4.8 | 11.3 | 0.00 | 0.00 | 0.00 | 74 | 1008.6 |
| 20260831063957 | 34 | 157 | 6.4 | 16.1 | 0.00 | 0.00 | 0.00 | 74 | 1008.3 |
| 20260831062455 | 34 | 177 | 9.7 | 19.3 | 0.00 | 0.00 | 0.00 | 74 | 1008.2 |
| 20260831055450 | 34 | 225 | 8.0 | 11.3 | 0.00 | 0.00 | 0.00 | 74 | 1008.1 |
| 20260831053947 | 34 | 225 | 9.7 | 17.7 | 0.00 | 0.00 | 0.00 | 74 | 1008.1 |
| 20260831052445 | 33 | 67 | 8.0 | 16.1 | 0.00 | 0.00 | 0.00 | 74 | 1008.3 |
| 20260831050943 | 33 | 157 | 3.2 | 12.9 | 0.00 | 0.00 | 0.00 | 74 | 1008.2 |
| 20260831045440 | 33 | 135 | 8.0 | 12.9 | 0.00 | 0.00 | 0.00 | 74 | 1008.3 |
| 20260831043937 | 33 | 135 | 11.3 | 12.9 | 0.00 | 0.00 | 0.00 | 74 | 1008.3 |
| 20260831042435 | 33 | 270 | 4.8 | 8.0 | 0.00 | 0.00 | 0.00 | 74 | 1008.6 |
| 20260831035425 | 33 | 67 | 6.4 | 12.9 | 0.00 | 0.00 | 0.00 | 74 | 1008.6 |
| 20260831033922 | 33 | 180 | 3.2 | 9.7 | 0.00 | 0.00 | 0.00 | 74 | 1008.9 |
| 20260831032420 | 33 | 180 | 9.7 | 14.5 | 0.00 | 0.00 | 0.00 | 75 | 1008.9 |
| 20260831030918 | 33 | 225 | 0.0 | 4.8 | 0.00 | 0.00 | 0.00 | 75 | 1009.0 |
| 20260831025415 | 33 | 225 | 1.6 | 4.8 | 0.00 | 0.00 | 0.00 | 75 | 1009.2 |
| 20260831023912 | 33 | 202 | 9.7 | 9.7 | 0.00 | 0.00 | 0.00 | 75 | 1009.4 |
| 20260831022410 | 33 | 225 | 6.4 | 8.0 | 0.00 | 0.00 | 0.00 | 75 | 1009.5 |
| 20260831020908 | 33 | 180 | 1.6 | 4.8 | 0.00 | 0.00 | 0.00 | 75 | 1009.7 |
| 20260831015404 | 33 | 180 | 0.0 | 12.9 | 0.00 | 0.00 | 0.00 | 76 | 1009.8 |
| 20260831013902 | 33 | 225 | 1.6 | 4.8 | 0.00 | 0.00 | 0.00 | 76 | 1009.9 |
| 20260831012400 | 33 | 225 | 1.6 | 4.8 | 0.00 | 0.00 | 0.00 | 76 | 1009.8 |
| 20260831010859 | 33 | 225 | 4.8 | 4.8 | 0.00 | 0.00 | 0.00 | 76 | 1009.8 |
| 20260831005355 | 32 | 157 | 1.6 | 1.6 | 0.00 | 0.00 | 0.00 | 76 | 1009.9 |
| 20260831003852 | 32 | 0 | 4.8 | 4.8 | 0.00 | 0.00 | 0.00 | 76 | 1009.9 |
| 20260831002350 | 32 | 0 | 1.6 | 1.6 | 0.00 | 0.00 | 0.00 | 77 | 1009.8 |
| 20260831000848 | 32 | 55 | 1.6 | 4.8 | 0.00 | 0.00 | 0.00 | 77 | 1009.6 |
| 20260830235344 | 32 | 45 | 0.0 | 1.6 | 0.00 | 0.00 | 0.00 | 77 | 1009.8 |
| 20260830233842 | 32 | 128 | 1.6 | 3.2 | 0.00 | 0.00 | 0.00 | 77 | 1009.7 |
| 20260830232339 | 32 | 202 | 0.0 | 4.8 | 0.00 | 0.00 | 0.00 | 77 | 1009.6 |
| 20260830230838 | 32 | 225 | 1.6 | 3.2 | 0.00 | 0.00 | 0.00 | 77 | 1009.6 |
| 20260830225334 | 32 | 225 | 1.6 | 4.8 | 0.00 | 0.00 | 0.00 | 77 | 1009.6 |
| 20260830223833 | 32 | 135 | 3.2 | 4.8 | 0.00 | 0.00 | 0.00 | 77 | 1009.4 |
| 20260830222329 | 32 | 157 | 3.2 | 4.8 | 0.00 | 0.00 | 0.00 | 77 | 1009.4 |
| 20260830220830 | 32 | 135 | 3.2 | 6.4 | 0.00 | 0.00 | 0.00 | 77 | 1009.5 |
| 20260830215329 | 32 | 135 | 0.0 | 3.2 | 0.00 | 0.00 | 0.00 | 77 | 1009.5 |
| 20260830213822 | 32 | 135 | 3.2 | 4.8 | 0.00 | 0.00 | 0.00 | 77 | 1009.5 |
| 20260830212319 | 32 | 135 | 1.6 | 4.8 | 0.00 | 0.00 | 0.00 | 77 | 1009.3 |
| 20260830210818 | 32 | 135 | 1.6 | 3.2 | 0.00 | 0.00 | 0.00 | 77 | 1009.2 |
| 20260830205314 | 32 | 135 | 1.6 | 3.2 | 0.00 | 0.00 | 0.00 | 77 | 1009.1 |
| 20260830203812 | 32 | 135 | 1.6 | 3.2 | 0.00 | 0.00 | 0.00 | 78 | 1009.1 |
| 20260830202309 | 32 | 135 | 0.0 | 3.2 | 0.00 | 0.00 | 0.00 | 77 | 1009.0 |
| 20260830200808 | 32 | 135 | 3.2 | 3.2 | 0.00 | 0.00 | 0.00 | 77 | 1008.8 |
| 20260830195305 | 32 | 135 | 0.0 | 3.2 | 0.00 | 0.00 | 0.00 | 77 | 1008.7 |
| 20260830193802 | 32 | 90 | 1.6 | 3.2 | 0.00 | 0.00 | 0.00 | 77 | 1008.6 |
| 20260830192259 | 32 | 90 | 0.0 | 3.2 | 0.00 | 0.00 | 0.00 | 77 | 1008.7 |
| 20260830190758 | 32 | 90 | 4.8 | 4.8 | 0.00 | 0.00 | 0.00 | 77 | 1008.6 |
| 20260830185254 | 32 | 0 | 1.6 | 1.6 | 0.00 | 0.00 | 0.00 | 77 | 1008.7 |
| 20260830183752 | 32 | 0 | 3.2 | 4.8 | 0.00 | 0.00 | 0.00 | 77 | 1008.6 |
| 20260830182249 | 32 | 0 | 0.0 | 3.2 | 0.00 | 0.00 | 0.00 | 77 | 1008.4 |
| 20260830180748 | 32 | 0 | 0.0 | 3.2 | 0.00 | 0.00 | 0.00 | 77 | 1008.4 |
| 20260830175244 | 32 | 0 | 3.2 | 4.8 | 0.00 | 0.00 | 0.00 | 77 | 1008.4 |
| 20260830173742 | 32 | 315 | 1.6 | 6.4 | 0.00 | 0.00 | 0.00 | 77 | 1008.4 |
| 20260830172239 | 32 | 315 | 1.6 | 6.4 | 0.00 | 0.00 | 0.00 | 77 | 1008.3 |
| 20260830170738 | 32 | 315 | 4.8 | 4.8 | 0.00 | 0.00 | 0.00 | 77 | 1008.3 |
| 20260830165234 | 32 | 315 | 1.6 | 4.8 | 0.00 | 0.00 | 0.00 | 77 | 1008.3 |
| 20260830163732 | 32 | 315 | 0.0 | 3.2 | 0.00 | 0.00 | 0.00 | 77 | 1008.3 |
| 20260830162229 | 32 | 315 | 3.2 | 4.8 | 0.00 | 0.00 | 0.00 | 77 | 1008.4 |
| 20260830160728 | 33 | 337 | 0.0 | 1.6 | 0.00 | 0.00 | 0.00 | 77 | 1008.5 |
| 20260830155224 | 33 | 337 | 1.6 | 4.8 | 0.00 | 0.00 | 0.00 | 77 | 1008.5 |
| 20260830153722 | 33 | 0 | 1.6 | 3.2 | 0.00 | 0.00 | 0.00 | 77 | 1008.4 |
| 20260830152219 | 33 | 0 | 0.0 | 1.6 | 0.00 | 0.00 | 0.00 | 77 | 1008.5 |
| 20260830150718 | 33 | 0 | 1.6 | 1.6 | 0.00 | 0.00 | 0.00 | 77 | 1008.5 |
| 20260830145214 | 33 | 0 | 1.6 | 1.6 | 0.00 | 0.00 | 0.00 | 77 | 1008.4 |
| 20260830143712 | 33 | 0 | 0.0 | 3.2 | 0.00 | 0.00 | 0.00 | 77 | 1008.6 |
| 20260830142209 | 33 | 0 | 0.0 | 1.6 | 0.00 | 0.00 | 0.00 | 77 | 1008.7 |
| 20260830140708 | 33 | 0 | 1.6 | 1.6 | 0.00 | 0.00 | 0.00 | 76 | 1008.7 |
| 20260830135204 | 33 | 0 | 0.0 | 1.6 | 0.00 | 0.00 | 0.00 | 76 | 1008.9 |
| 20260830133702 | 33 | 0 | 0.0 | 3.2 | 0.00 | 0.00 | 0.00 | 76 | 1009.0 |
| 20260830132159 | 33 | 0 | 0.0 | 1.6 | 0.00 | 0.00 | 0.00 | 76 | 1009.0 |
| 20260830130658 | 33 | 0 | 1.6 | 3.2 | 0.00 | 0.00 | 0.00 | 76 | 1008.8 |
| 20260830125154 | 33 | 0 | 0.0 | 4.8 | 0.00 | 0.00 | 0.00 | 76 | 1008.8 |
| 20260830123652 | 33 | 0 | 0.0 | 3.2 | 0.00 | 0.00 | 0.00 | 76 | 1008.9 |
| 20260830122149 | 33 | 337 | 3.2 | 4.8 | 0.00 | 0.00 | 0.00 | 76 | 1009.0 |
| 20260830120648 | 33 | 315 | 8.0 | 8.0 | 0.00 | 0.00 | 0.00 | 76 | 1009.1 |